N6GIW Weather Reports


time (UTC)temp
F
wind
direction
speed
knots
gust
knots
rain 1hr
in
rain 24hr
in
rain mn
in
humidity
%
barometer
mb
20260906223505 68 77 0.9 2.6 0.01 0.43 0.26 90 1025.3
20260906222505 68 54 0.0 2.6 0.01 0.43 0.26 92 1025.8
20260906222005 68 55 0.9 2.6 0.00 0.42 0.25 92 1026.0
20260906221503 67 41 1.7 2.6 0.00 0.42 0.25 92 1025.9
20260906221005 67 43 2.6 4.3 0.01 0.42 0.25 93 1026.2
20260906220504 67 59 1.7 2.6 0.01 0.42 0.25 93 1026.2
20260906220004 67 130 0.0 1.7 0.02 0.42 0.25 93 1026.2
20260906215505 67 130 0.0 0.9 0.02 0.42 0.25 94 1026.3
20260906215005 67 130 1.7 4.3 0.03 0.42 0.25 93 1026.3
20260906214504 68 130 2.6 4.3 0.04 0.42 0.25 94 1026.2
20260906214004 67 128 2.6 4.3 0.05 0.42 0.25 94 1026.1
20260906213504 67 128 1.7 2.6 0.06 0.42 0.25 94 1026.1
20260906212506 67 139 1.7 7.0 0.08 0.42 0.25 93 1026.4
20260906212005 67 132 1.7 4.3 0.25 0.42 0.25 93 1026.3
20260906211504 67 113 1.7 5.2 0.25 0.42 0.25 94 1026.4
20260906211004 67 74 0.0 1.7 0.24 0.41 0.24 94 1026.6
20260906210505 67 68 0.9 2.6 0.24 0.41 0.24 93 1026.6
20260906210004 67 56 0.0 2.6 0.23 0.40 0.23 93 1026.6
20260906205504 67 49 0.0 1.7 0.23 0.40 0.23 93 1026.7
20260906205004 67 47 0.0 1.7 0.22 0.39 0.22 93 1026.9
20260906204504 67 37 0.9 1.7 0.21 0.38 0.21 93 1026.9
20260906204004 67 37 0.0 2.6 0.20 0.37 0.20 93 1026.8
20260906203505 67 25 0.0 1.7 0.19 0.36 0.19 92 1027.0
20260906203005 67 24 0.0 2.6 0.18 0.35 0.18 92 1027.0
20260906202504 60 38 1.7 5.2 0.17 0.34 0.17 75 1027.3
20260906182004 68 151 0.0 0.0 0.02 0.16 0.16 89 1026.5
20260906181503 68 151 0.0 2.6 0.01 0.15 0.15 89 1026.4
20260906180503 68 142 2.6 4.3 0.02 0.15 0.15 91 1026.2
20260906175003 68 132 1.7 4.3 0.03 0.15 0.15 90 1026.1
20260906174503 69 130 1.7 2.6 0.03 0.15 0.15 91 1026.0
20260906174003 69 84 0.0 0.9 0.02 0.14 0.14 90 1026.0
20260906173503 69 84 0.0 0.9 0.02 0.14 0.14 91 1026.0
20260906173003 68 78 0.0 0.0 0.02 0.14 0.14 90 1026.2
20260906172503 68 65 0.0 0.9 0.03 0.14 0.14 90 1026.2
20260906172003 69 49 0.0 2.6 0.03 0.14 0.14 91 1026.1
20260906171504 68 49 1.7 2.6 0.03 0.14 0.14 90 1026.1
20260906171003 68 47 2.6 5.2 0.03 0.13 0.13 90 1026.0
20260906170503 68 38 1.7 2.6 0.03 0.13 0.13 89 1026.0
20260906170004 68 31 1.7 5.2 0.03 0.13 0.13 89 1026.0
20260906165504 68 38 2.6 7.0 0.03 0.12 0.12 88 1026.0
20260906165004 68 17 2.6 7.0 0.03 0.12 0.12 88 1025.9
20260906164503 68 6 3.5 7.0 0.03 0.12 0.12 88 1025.9
20260906164004 68 1 4.3 7.0 0.03 0.12 0.12 89 1025.9
20260906163003 68 13 4.3 6.1 0.03 0.12 0.12 89 1025.9
20260906161503 68 352 4.3 7.8 0.02 0.11 0.11 89 1025.8
20260906161003 68 0 5.2 10.4 0.01 0.10 0.10 88 1025.6
20260906160503 69 11 6.1 8.7 0.02 0.10 0.10 88 1025.7
20260906160004 69 4 5.2 10.4 0.02 0.10 0.10 87 1025.5
20260906155004 69 358 6.1 10.4 0.01 0.09 0.09 85 1025.6
20260906154503 69 344 6.1 10.4 0.01 0.09 0.09 84 1025.4
20260906154003 70 327 6.1 10.4 0.01 0.09 0.09 83 1025.4
20260906153503 70 331 4.3 10.4 0.01 0.09 0.09 82 1025.3
20260906153004 70 350 3.5 7.8 0.02 0.09 0.09 82 1025.4
20260906152503 70 0 2.6 4.3 0.02 0.09 0.09 84 1025.3
20260906152003 69 329 2.6 2.6 0.02 0.09 0.09 83 1025.2
20260906151504 69 323 1.7 2.6 0.02 0.09 0.09 84 1025.1
20260906151003 69 280 0.9 2.6 0.02 0.09 0.09 84 1025.0
20260906150503 69 271 0.9 2.6 0.01 0.08 0.08 84 1024.9
20260906145504 69 275 1.7 2.6 0.01 0.08 0.08 83 1024.7
20260906145006 69 274 1.7 2.6 0.01 0.08 0.08 83 1024.6
20260906144503 69 271 1.7 2.6 0.01 0.08 0.08 83 1024.5
20260906144004 69 260 0.0 0.9 0.01 0.08 0.08 84 1024.4
20260906143503 69 260 0.0 1.7 0.01 0.08 0.08 83 1024.3
20260906143004 69 260 1.7 2.6 0.00 0.07 0.07 83 1024.1
20260906142503 69 261 0.0 1.7 0.00 0.07 0.07 82 1023.9
20260906142004 69 261 0.9 2.6 0.00 0.07 0.07 82 1024.0
20260906141503 69 254 0.0 0.0 0.00 0.07 0.07 83 1023.8
20260906141003 69 246 0.9 2.6 0.01 0.07 0.07 83 1023.8
20260906140503 68 246 0.0 0.0 0.01 0.07 0.07 83 1023.7
20260906140004 68 246 0.0 2.6 0.01 0.07 0.07 83 1023.8
20260906135503 68 245 0.0 1.7 0.01 0.07 0.07 84 1023.7
20260906134004 68 245 0.0 2.6 0.02 0.07 0.07 85 1023.8
20260906133003 68 246 0.0 0.9 0.02 0.07 0.07 82 1023.6
20260906132504 68 246 0.9 2.6 0.03 0.07 0.07 82 1023.9
20260906132003 68 244 1.7 2.6 0.04 0.07 0.07 81 1023.8
20260906131503 68 242 1.7 2.6 0.05 0.07 0.07 81 1023.6
20260906131004 68 230 0.9 2.6 0.05 0.06 0.06 82 1023.7
20260906130504 68 238 0.9 2.6 0.05 0.06 0.06 81 1023.8
20260906125503 68 253 1.7 2.6 0.05 0.06 0.06 82 1023.6
20260906125004 68 243 0.9 1.7 0.06 0.06 0.06 83 1023.5
20260906124003 68 238 0.0 1.7 0.05 0.05 0.05 82 1023.5
20260906123503 68 238 0.9 2.6 0.05 0.05 0.05 83 1023.5
20260906123004 68 239 0.9 2.6 0.05 0.05 0.05 81 1023.6
20260906122503 69 250 1.7 2.6 0.04 0.04 0.04 81 1023.6
20260906122003 69 243 0.9 4.3 0.03 0.03 0.03 80 1023.7
20260906121503 70 226 1.7 4.3 0.02 0.02 0.02 78 1023.6
20260906121003 70 245 1.7 2.6 0.01 0.01 0.01 77 1023.7
20260906120503 71 267 0.9 2.6 0.01 0.01 0.01 77 1023.7
20260906120004 71 269 1.7 2.6 0.01 0.01 0.01 75 1023.6
20260906115003 73 274 1.7 2.6 0.00 0.00 0.00 69 1023.3
20260906114503 73 248 0.9 0.9 0.00 0.00 0.00 69 1023.2
20260906114004 74 244 0.9 1.7 0.00 0.00 0.00 68 1023.1
20260906113503 74 244 0.9 2.6 0.00 0.00 0.00 65 1023.1
20260906113003 75 242 0.9 1.7 0.00 0.00 0.00 64 1023.0
20260906112504 75 241 0.0 1.7 0.00 0.00 0.00 62 1022.9
20260906111503 75 223 2.6 5.2 0.00 0.00 0.00 60 1022.5
20260906111003 75 210 4.3 6.1 0.00 0.00 0.00 60 1022.5
20260906110503 75 224 4.3 7.0 0.00 0.00 0.00 60 1022.7
20260906105503 75 225 3.5 6.1 0.00 0.00 0.00 61 1022.7
20260906105003 75 216 2.6 7.0 0.00 0.00 0.00 61 1022.9
20260906104003 75 191 2.6 5.2 0.00 0.00 0.00 61 1023.1
20260906103503 75 184 1.7 4.3 0.00 0.00 0.00 60 1023.1
20260906102503 76 179 2.6 6.1 0.00 0.00 0.00 57 1022.9
20260906102003 76 172 4.3 6.1 0.00 0.00 0.00 56 1022.9
20260906101504 77 177 5.2 7.8 0.00 0.00 0.00 55 1022.9
20260906101004 77 172 5.2 7.8 0.00 0.00 0.00 55 1023.0
20260906100003 78 164 3.5 6.1 0.00 0.00 0.00 51 1023.1
20260906095503 78 184 4.3 7.0 0.00 0.00 0.00 51 1023.1
20260906095003 78 207 2.6 5.2 0.00 0.00 0.00 51 1023.0
20260906094503 78 244 2.6 6.1 0.00 0.00 0.00 51 1023.0
20260906093504 77 227 0.0 0.9 0.00 0.00 0.00 51 1023.1
20260906093003 77 227 0.0 1.7 0.00 0.00 0.00 51 1023.0
20260906092505 77 227 1.7 4.3 0.00 0.00 0.00 51 1023.0
20260906092004 78 211 2.6 2.6 0.00 0.00 0.00 50 1023.0
20260906091503 78 214 1.7 6.1 0.00 0.00 0.00 49 1023.0
20260906091003 78 215 1.7 5.2 0.00 0.00 0.00 48 1022.9
20260906085504 78 255 1.7 2.6 0.00 0.00 0.00 47 1023.0
20260906085006 77 210 1.7 5.2 0.00 0.00 0.00 47 1023.0
20260906084503 77 261 0.0 0.0 0.00 0.00 0.00 46 1023.0
20260906084003 78 261 0.9 2.6 0.00 0.00 0.00 46 1023.1
20260906083504 78 262 1.7 7.0 0.00 0.00 0.00 47 1023.0
20260906083003 77 278 2.6 6.1 0.00 0.00 0.00 48 1023.1
20260906082503 77 231 2.6 4.3 0.00 0.00 0.00 46 1023.1
20260906082003 77 253 0.9 2.6 0.00 0.00 0.00 46 1022.9
20260906081504 77 240 0.0 2.6 0.00 0.00 0.00 46 1022.9
20260906080503 77 264 0.0 0.9 0.00 0.00 0.00 44 1022.9
20260906080004 77 265 0.0 0.9 0.00 0.00 0.00 41 1022.9
20260906075504 77 307 0.0 0.0 0.00 0.00 0.00 40 1022.9
20260906075004 77 307 0.0 0.0 0.00 0.00 0.00 40 1022.8
20260906074503 77 307 0.0 0.0 0.00 0.00 0.00 39 1022.8
20260906074004 78 307 0.0 0.0 0.00 0.00 0.00 40 1022.9
20260906073004 78 307 0.0 0.9 0.00 0.00 0.00 40 1022.8
20260906072503 78 307 0.0 0.9 0.00 0.00 0.00 40 1022.8
20260906072003 78 294 0.9 2.6 0.00 0.00 0.00 44 1022.8
20260906071503 78 270 1.7 2.6 0.00 0.00 0.00 46 1022.9
20260906071003 78 301 0.0 1.7 0.00 0.00 0.00 44 1022.8
20260906070503 78 296 0.9 2.6 0.00 0.00 0.00 45 1022.8
20260906070004 78 269 3.5 7.0 0.00 0.00 0.00 45 1022.8
20260906065007 78 261 2.6 6.1 0.00 0.00 0.00 45 1022.9
20260906064503 78 242 2.6 6.1 0.00 0.00 0.00 44 1022.9
20260906064004 78 232 3.5 8.7 0.00 0.00 0.00 44 1022.9
20260906063504 78 245 2.6 5.2 0.00 0.00 0.00 43 1022.9
20260906063004 78 233 4.3 6.1 0.00 0.00 0.00 44 1023.0
20260906062504 78 227 3.5 6.1 0.00 0.00 0.00 43 1022.9
20260906062004 78 223 1.7 5.2 0.00 0.00 0.00 41 1023.0
20260906061504 78 204 2.6 7.0 0.00 0.00 0.00 41 1023.1
20260906060003 78 264 0.9 6.1 0.00 0.00 0.00 41 1023.0
20260906055504 78 244 1.7 7.0 0.00 0.00 0.00 42 1023.1
20260906055004 78 238 1.7 5.2 0.00 0.00 0.00 41 1023.1
20260906054503 78 237 0.9 6.1 0.00 0.00 0.00 41 1023.1
20260906054004 78 249 0.0 1.7 0.00 0.00 0.00 41 1023.2
20260906053504 78 248 0.0 2.6 0.00 0.00 0.00 40 1023.4
20260906053003 79 223 1.7 5.2 0.00 0.00 0.00 40 1023.1
20260906052505 79 229 4.3 7.8 0.00 0.00 0.00 39 1023.0
20260906052003 78 248 3.5 7.0 0.00 0.00 0.00 38 1023.0
20260906051003 78 228 5.2 7.0 0.00 0.00 0.00 38 1023.0
20260906050503 78 229 2.6 5.2 0.00 0.00 0.00 38 1023.0
20260906050003 78 209 4.3 8.7 0.00 0.00 0.00 38 1023.1
20260906045503 78 207 5.2 8.7 0.00 0.00 0.00 38 1023.0
20260906045006 78 213 4.3 7.8 0.00 0.00 0.00 38 1023.0
20260906044504 78 221 4.3 7.8 0.00 0.00 0.00 38 1023.0
20260906044004 78 250 5.2 8.7 0.00 0.00 0.00 38 1023.0
20260906043504 78 237 3.5 8.7 0.00 0.00 0.00 38 1022.9
20260906043003 78 221 1.7 4.3 0.00 0.00 0.00 38 1023.0
20260906042503 78 232 3.5 7.0 0.00 0.00 0.00 39 1022.9
20260906042003 78 227 1.7 7.0 0.00 0.00 0.00 39 1022.8
20260906041503 78 204 1.7 5.2 0.00 0.00 0.00 38 1022.8
20260906040003 79 240 3.5 7.8 0.00 0.00 0.00 38 1022.6
20260906035503 79 237 3.5 10.4 0.00 0.00 0.00 38 1022.6
20260906035003 79 239 6.1 10.4 0.00 0.00 0.00 38 1022.6
20260906034503 79 230 5.2 8.7 0.00 0.00 0.00 38 1022.4
20260906034003 79 238 3.5 10.4 0.00 0.00 0.00 38 1022.4
20260906033004 79 230 5.2 11.3 0.00 0.00 0.00 38 1022.2
20260906032503 80 218 5.2 8.7 0.00 0.00 0.00 38 1022.1
20260906032003 80 219 7.8 13.0 0.00 0.00 0.00 38 1022.1
20260906031504 80 214 7.8 11.3 0.00 0.00 0.00 38 1022.1
20260906031003 80 218 6.1 12.2 0.00 0.00 0.00 38 1022.1
20260906030503 80 220 7.8 13.9 0.00 0.00 0.00 38 1022.1
20260906030003 80 207 7.8 10.4 0.00 0.00 0.00 38 1022.1
20260906025503 80 236 6.1 11.3 0.00 0.00 0.00 38 1022.1
20260906025003 80 224 6.1 12.2 0.00 0.00 0.00 38 1021.9
20260906024503 80 219 7.0 12.2 0.00 0.00 0.00 38 1022.0
20260906024004 80 231 8.7 15.6 0.00 0.00 0.00 37 1021.9
20260906023504 80 228 8.7 14.8 0.00 0.00 0.00 37 1021.8
20260906023004 81 214 9.6 15.6 0.00 0.00 0.00 37 1021.9
20260906022503 81 220 8.7 14.8 0.00 0.00 0.00 37 1021.9
20260906022004 81 222 7.0 11.3 0.00 0.00 0.00 37 1021.9
20260906021503 81 225 6.1 17.4 0.00 0.00 0.00 36 1022.0
20260906021004 81 216 8.7 14.8 0.00 0.00 0.00 36 1022.0
20260906020503 82 239 6.1 12.2 0.00 0.00 0.00 35 1022.0
20260906020003 82 212 7.8 13.9 0.00 0.00 0.00 35 1021.9
20260906015503 82 216 8.7 13.9 0.00 0.00 0.00 34 1021.9
20260906015004 83 214 7.0 13.0 0.00 0.00 0.00 34 1021.9
20260906014004 83 209 8.7 13.0 0.00 0.00 0.00 33 1021.8
20260906013503 84 209 9.6 15.6 0.00 0.00 0.00 32 1021.9
20260906013004 84 203 7.0 13.9 0.00 0.00 0.00 32 1021.9
20260906012503 84 219 8.7 13.9 0.00 0.00 0.00 32 1021.8
20260906012003 84 195 6.1 11.3 0.00 0.00 0.00 32 1021.9
20260906011503 85 189 8.7 13.0 0.00 0.00 0.00 31 1021.9
20260906010504 85 215 7.0 11.3 0.00 0.00 0.00 32 1021.9
20260906005504 85 221 8.7 13.9 0.00 0.00 0.00 31 1022.0
20260906005003 85 224 10.4 13.9 0.00 0.00 0.00 32 1021.9
20260906004503 85 200 8.7 13.0 0.00 0.00 0.00 31 1022.0
20260906004003 85 202 10.4 17.4 0.00 0.00 0.00 31 1021.9
20260906003504 85 214 9.6 13.9 0.00 0.00 0.00 31 1021.9
20260906003003 85 221 9.6 14.8 0.00 0.00 0.00 31 1021.9
20260906002504 86 197 12.2 17.4 0.00 0.00 0.00 30 1021.7
20260906002004 86 220 7.8 12.2 0.00 0.00 0.00 31 1021.9
20260906001004 87 224 8.7 17.4 0.00 0.00 0.00 31 1022.0
20260905234504 86 205 9.6 17.4 0.00 0.00 0.00 31 1022.0
20260905234004 86 201 12.2 17.4 0.00 0.00 0.00 30 1022.1
20260905232503 86 190 10.4 17.4 0.00 0.00 0.00 32 1022.3
20260905232003 87 202 13.0 21.7 0.00 0.00 0.00 33 1022.0
20260905231503 87 205 9.6 17.4 0.00 0.00 0.00 32 1022.1
20260905230503 88 194 11.3 18.2 0.00 0.00 0.00 29 1021.9
20260905225503 89 203 14.8 22.6 0.00 0.00 0.00 29 1022.1
20260905225006 89 207 10.4 19.1 0.00 0.00 0.00 29 1022.0
20260905224504 90 199 13.9 20.9 0.00 0.00 0.00 28 1021.9